User: anonymous   Login
Location: Newark
(49.2191°N, 12.6671°E)
Time: 13:14:25
(UTC+00:00)
Language:

Courier 1B Rocket - Orbit

View from above orbital plane
View from above orbital plane
View from above satellite
View from above satellite

Ground track
Ground track

The orbit data is extracted from the following two-line orbital elements,

1    59U 60013B   20016.44216372 +.00000118 +00000-0 +42510-4 0  9998
2    59 028.2480 284.1914 0189221 081.9533 280.2436 13.52973343925866
Epoch (UTC): 16 January 2020 10:36:42
Eccentricity: 0.0189221
inclination: 28.2480°
perigee height: 920 km
apogee height: 1202 km
right ascension of ascending node: 284.1914°
argument of perigee: 81.9533°
revolutions per day: 13.52973343
mean anomaly at epoch: 280.2436°
orbit number at epoch: 92586

The dashed part of the orbit path shows where the satellite is in the earth's shadow,  

DLR